Wind_Speed
18 19 20 20 20 20 21 22 23 24 25 25 26 27 28 30 32 33 34 36 37 39 40 41 41 42 42 42 42 42 42 43 43 43 44 45 45 46 46 47 46 46
20 20 21 21 21 22 22 23 24 26 27 28 29 30 32 34 35 37 38 40 41 41 42 42 42 42 43 43 43 43 43 43 44 44 45 46 47 47 47 47 47 47
21 21 22 23 23 24 25 26 27 28 29 31 32 34 35 37 38 39 40 41 41 42 42 42 42 42 43 43 43 43 43 44 44 45 46 47 47 47 47 47 48 48
20 21 22 23 24 26 27 28 29 30 32 33 35 36 38 39 40 41 41 41 41 41 41 41 41 42 42 43 43 43 44 45 45 46 46 47 47 47 48 48 49 49
21 22 23 25 26 27 29 30 31 33 34 35 37 38 39 40 41 41 42 42 41 41 41 41 41 42 42 43 44 44 45 45 46 46 46 47 48 48 49 49 49 50
23 24 25 27 28 29 31 32 33 34 35 36 37 38 39 39 40 40 40 40 40 40 40 41 42 42 43 44 44 44 45 45 46 46 47 47 48 48 49 49 50 50
24 25 27 28 30 31 32 33 34 35 36 36 37 37 38 38 38 38 38 38 39 39 40 41 42 43 43 43 44 44 45 45 46 46 47 48 48 49 49 50 50 51
26 28 29 31 32 33 34 34 35 35 36 36 37 37 37 37 36 36 37 37 38 39 40 41 41 42 42 43 43 44 44 45 45 46 47 47 48 49 49 50 51 51
29 30 32 33 33 34 34 34 35 35 36 36 36 36 36 36 36 36 37 38 39 40 40 41 41 42 42 43 43 43 44 44 45 46 47 47 48 49 50 51 51 52
31 32 33 33 33 34 34 34 35 35 36 36 36 36 36 37 37 38 39 40 40 41 41 41 41 41 41 42 42 43 43 44 45 46 47 48 49 50 51 52 52 53
32 33 34 33 33 33 34 34 35 35 36 36 36 37 37 38 38 39 39 39 39 40 40 40 40 40 40 41 41 42 43 44 46 47 48 49 50 51 52 53 54 54
34 34 34 33 33 33 34 34 35 35 36 36 36 37 37 37 38 38 38 38 38 38 38 38 38 39 39 41 42 43 44 46 47 48 49 50 51 52 53 54 55 55
34 34 33 33 33 33 34 35 35 36 36 36 36 36 36 36 37 37 36 36 36 36 37 37 38 39 40 42 43 44 46 47 48 49 50 51 52 53 53 54 54 55
34 33 33 33 33 34 34 35 36 36 36 36 36 36 36 36 36 35 35 35 35 36 36 37 38 40 42 43 45 46 47 48 49 50 51 51 52 53 53 54 54 54
34 33 34 34 34 34 35 35 36 36 36 36 35 35 35 35 34 34 34 34 35 35 36 38 40 42 43 45 46 47 48 49 49 50 50 51 52 52 53 53 53 53
34 34 34 34 34 34 35 35 36 36 35 35 35 35 34 33 33 33 34 35 35 35 37 39 41 43 44 46 47 47 48 48 49 49 50 50 51 51 51 51 52 52
34 35 35 35 34 34 35 35 35 35 34 34 34 34 33 33 33 33 34 34 34 36 38 41 43 44 45 46 47 47 47 48 48 49 49 50 50 50 50 51 52 52
35 35 35 34 34 35 35 35 35 34 34 34 34 34 33 33 33 34 34 34 35 38 40 42 44 45 46 46 46 46 47 47 48 49 49 49 49 50 50 51 51 51
35 35 34 34 34 34 35 34 34 34 34 34 34 34 34 34 34 34 34 34 37 39 41 43 44 45 45 45 45 46 47 47 48 48 48 48 49 49 50 51 50 49
35 34 34 34 34 34 34 34 34 35 35 35 35 34 34 34 34 34 34 35 38 41 42 43 44 44 44 44 45 45 46 47 47 47 47 48 48 49 49 49 48 47
34 33 33 34 34 34 34 35 35 36 36 35 35 35 35 35 34 34 34 37 39 41 42 43 43 43 43 44 44 45 45 45 46 46 47 47 48 48 47 46 46 45
33 33 33 33 34 34 34 35 35 36 36 35 35 35 35 34 34 34 35 38 40 41 41 41 42 42 43 43 43 44 44 45 45 45 46 47 47 46 44 44 44 44
32 32 33 33 33 34 34 35 36 36 35 35 35 35 35 34 34 34 36 39 40 40 40 40 41 41 42 42 42 43 43 43 44 45 46 46 45 43 42 42 42 42
32 32 33 33 34 34 35 35 36 35 35 35 35 35 35 34 34 35 37 39 39 39 39 39 40 40 40 41 41 41 42 42 43 44 44 43 42 41 41 41 41 42
33 34 34 34 35 35 35 35 36 35 35 35 35 35 35 35 35 36 38 39 38 38 38 38 38 39 39 40 40 40 41 42 43 43 42 40 40 40 40 40 40 41
34 35 35 36 36 36 36 36 36 36 35 35 35 35 35 35 35 36 37 37 36 36 37 37 37 38 38 38 38 39 39 40 41 40 38 38 38 39 38 39 40 41
Wind_Direction
284 286 287 287 288 289 289 290 291 291 292 292 293 293 294 294 294 295 296 297 298 298 298 297 297 297 297 297 298 298 299 299 299 300 300 301 302 303 304 305 306 306
281 284 285 286 287 288 289 290 291 292 293 294 294 295 295 296 296 297 297 297 297 296 296 296 296 296 296 297 297 298 298 298 299 299 300 301 303 304 305 305 305 305
283 284 283 283 284 286 289 291 293 294 295 295 296 297 297 297 298 298 298 297 296 295 295 295 295 296 296 296 297 297 298 298 298 300 301 302 303 304 304 305 305 304
286 285 285 285 287 288 291 293 295 296 297 297 298 298 298 298 298 298 297 296 296 295 295 295 295 295 296 296 297 297 298 298 299 301 302 303 303 304 304 304 304 303
285 285 287 288 290 292 294 295 296 297 298 298 298 298 298 298 297 296 295 295 295 295 295 295 295 295 296 297 297 298 299 300 301 302 302 303 304 304 304 304 303 303
285 286 287 288 290 293 294 295 296 297 298 298 298 298 298 297 296 295 295 295 295 294 295 295 295 296 297 298 298 300 300 301 302 302 303 304 304 304 303 303 303 303
284 284 286 288 290 293 294 295 296 297 297 298 298 298 298 297 296 296 296 296 295 295 296 296 296 297 298 299 300 301 301 302 303 303 304 304 303 303 303 303 303 303
282 283 285 288 291 292 293 295 296 297 298 298 298 298 297 297 297 297 297 297 297 297 297 297 298 299 300 301 301 302 303 303 304 304 303 303 303 304 304 304 304 305
282 284 286 289 291 292 293 295 296 298 299 299 298 297 297 297 297 298 298 299 299 298 298 299 300 300 301 302 302 303 303 303 303 303 304 304 304 305 305 305 306 306
283 285 287 289 291 292 294 296 298 299 299 298 297 296 295 296 297 298 299 299 299 299 299 300 300 301 302 303 303 303 304 304 304 305 305 305 305 306 306 307 307 306
284 286 287 289 291 293 296 298 299 299 298 297 295 295 295 296 297 298 299 299 300 300 300 300 301 302 303 303 304 304 305 306 306 306 306 307 307 308 308 308 307 307
285 286 287 289 292 295 297 299 299 298 297 296 295 295 295 296 298 299 300 300 300 300 301 302 303 304 304 305 306 307 307 307 307 308 308 309 309 309 309 308 308 307
284 285 287 290 293 296 298 298 298 298 296 296 295 295 296 297 299 300 301 301 301 302 303 304 305 306 307 308 308 308 308 308 309 310 310 310 310 309 309 309 308 308
282 284 287 290 294 296 297 298 298 297 297 296 295 296 297 298 300 301 301 302 303 304 305 306 308 309 310 309 309 309 309 310 311 311 311 310 310 309 309 309 310 310
282 285 287 290 293 295 297 298 298 297 296 295 295 296 298 299 300 301 303 304 305 305 307 309 310 311 311 310 310 310 311 311 311 311 310 310 310 311 311 311 311 311
281 284 287 290 292 295 297 297 297 297 296 295 296 297 298 299 301 302 304 304 305 307 309 311 311 311 310 310 311 311 311 311 311 310 310 311 312 312 312 313 313 313
281 283 286 289 292 294 296 296 296 296 296 296 297 297 298 300 301 303 303 304 305 308 311 311 311 311 311 311 311 311 311 311 311 311 312 313 313 314 314 314 315 315
280 282 285 288 291 294 295 296 296 296 297 297 297 297 298 300 301 302 302 303 306 309 311 311 311 311 311 311 311 311 311 311 312 313 314 315 315 315 316 316 316 315
279 282 285 288 291 293 294 295 296 296 296 296 296 296 297 299 300 300 301 304 308 310 311 310 310 311 311 311 311 311 312 313 314 315 315 316 317 317 317 317 316 316
278 281 285 288 290 293 294 294 295 295 295 295 295 296 296 297 298 299 302 306 309 310 310 310 310 311 311 312 312 312 314 315 315 316 317 317 318 318 318 318 318 318
278 282 285 288 291 293 293 293 293 294 294 295 295 294 295 296 297 299 304 308 309 309 309 310 311 311 312 312 313 314 315 316 317 317 318 319 319 320 320 320 320 320
278 282 286 289 291 292 292 292 293 293 293 293 293 294 295 296 297 300 305 308 309 309 309 310 311 312 312 313 315 316 317 317 318 319 319 320 321 321 322 322 322 323
278 283 286 289 290 290 291 292 293 293 292 292 293 293 294 296 298 301 305 307 308 308 310 311 312 313 314 316 317 318 318 318 319 320 321 321 322 323 324 324 325 326
279 283 286 288 288 289 290 291 292 292 291 292 292 293 295 296 298 302 305 307 308 309 311 312 313 315 316 318 318 319 319 319 320 321 322 323 324 325 325 326 327 328
279 283 285 286 287 287 289 290 290 290 290 291 292 293 294 296 299 302 305 307 308 310 312 313 315 317 318 319 319 319 320 321 321 322 324 325 326 327 328 329 330 331
280 282 284 285 286 287 288 288 288 289 289 291 292 293 295 297 300 302 305 307 309 311 313 315 317 318 319 319 319 320 321 321 322 324 325 327 328 329 331 332 332 333
Height
5810 5810 5810 5810 5809 5809 5808 5808 5807 5807 5806 5805 5804 5803 5803 5802 5800 5799 5797 5796 5794 5793 5791 5790 5788 5786 5784 5783 5781 5779 5777 5776 5774 5772 5770 5768 5767 5765 5762 5760 5758 5756
5808 5808 5808 5807 5807 5807 5806 5805 5805 5804 5803 5802 5801 5801 5799 5798 5797 5795 5794 5792 5790 5789 5787 5785 5784 5782 5780 5778 5777 5775 5773 5771 5770 5768 5766 5764 5762 5760 5757 5755 5752 5750
5806 5806 5805 5805 5805 5804 5803 5803 5802 5801 5801 5800 5799 5797 5796 5794 5793 5791 5790 5788 5786 5784 5783 5781 5779 5778 5776 5774 5772 5771 5769 5767 5765 5763 5761 5759 5757 5755 5752 5750 5747 5745
5803 5803 5803 5802 5802 5802 5801 5800 5799 5799 5798 5796 5795 5793 5792 5790 5789 5787 5786 5784 5782 5780 5778 5777 5775 5773 5772 5770 5768 5766 5765 5763 5761 5759 5756 5754 5752 5749 5747 5744 5742 5739
5801 5801 5800 5800 5799 5799 5798 5798 5797 5796 5794 5793 5791 5790 5788 5787 5785 5783 5782 5780 5778 5776 5775 5773 5771 5769 5768 5766 5764 5762 5760 5758 5756 5754 5752 5749 5747 5744 5741 5739 5736 5733
5799 5798 5798 5797 5797 5796 5796 5795 5794 5792 5791 5789 5788 5786 5785 5783 5781 5780 5778 5776 5774 5772 5771 5769 5767 5765 5764 5762 5760 5758 5756 5753 5751 5749 5746 5744 5741 5739 5736 5733 5731 5728
5796 5796 5795 5795 5794 5793 5792 5791 5790 5789 5787 5786 5784 5782 5781 5779 5778 5776 5774 5772 5770 5769 5767 5765 5763 5761 5759 5758 5755 5753 5751 5749 5746 5744 5741 5739 5736 5733 5731 5728 5725 5722
5794 5793 5793 5792 5791 5790 5789 5788 5787 5785 5783 5782 5780 5779 5777 5775 5774 5772 5770 5768 5766 5765 5763 5761 5759 5757 5755 5753 5751 5749 5746 5744 5741 5739 5736 5734 5731 5728 5725 5722 5719 5716
5791 5790 5790 5789 5788 5787 5786 5784 5783 5781 5780 5778 5776 5775 5773 5771 5770 5768 5766 5765 5763 5761 5759 5757 5756 5753 5751 5749 5747 5744 5742 5739 5737 5734 5731 5729 5726 5723 5720 5717 5714 5710
5788 5787 5786 5786 5785 5784 5782 5781 5779 5778 5776 5774 5772 5771 5769 5767 5766 5764 5763 5761 5759 5757 5755 5754 5751 5749 5747 5745 5742 5740 5738 5735 5732 5729 5726 5723 5720 5717 5714 5711 5708 5705
5785 5784 5783 5782 5781 5780 5779 5777 5776 5774 5772 5770 5769 5767 5765 5764 5762 5760 5759 5757 5755 5753 5752 5750 5748 5745 5743 5741 5738 5736 5733 5730 5727 5724 5721 5718 5715 5711 5708 5705 5702 5698
5781 5780 5779 5779 5778 5776 5775 5773 5772 5770 5768 5766 5765 5763 5762 5760 5758 5757 5755 5753 5751 5750 5748 5746 5743 5741 5739 5737 5734 5731 5728 5725 5722 5719 5716 5712 5709 5706 5702 5699 5695 5692
5778 5777 5776 5775 5774 5772 5771 5769 5768 5766 5764 5763 5761 5760 5758 5757 5755 5753 5751 5749 5748 5746 5744 5742 5740 5737 5735 5732 5730 5727 5724 5721 5717 5714 5711 5707 5704 5700 5697 5693 5690 5686
5774 5773 5772 5771 5770 5769 5767 5765 5764 5762 5761 5759 5757 5756 5755 5753 5751 5749 5747 5746 5744 5742 5740 5738 5736 5733 5730 5728 5725 5722 5719 5716 5712 5709 5706 5702 5699 5695 5691 5688 5684 5680
5771 5770 5769 5767 5766 5765 5763 5762 5760 5758 5757 5755 5754 5752 5751 5749 5748 5746 5744 5742 5740 5738 5736 5734 5732 5729 5726 5723 5721 5718 5714 5711 5708 5705 5701 5698 5694 5690 5686 5682 5678 5674
5767 5766 5765 5764 5762 5761 5760 5758 5756 5755 5753 5752 5750 5749 5747 5746 5744 5742 5740 5739 5737 5735 5733 5730 5728 5725 5722 5719 5716 5713 5710 5707 5704 5700 5696 5693 5689 5685 5681 5677 5672 5668
5763 5762 5761 5760 5759 5757 5756 5754 5753 5751 5750 5748 5747 5745 5744 5742 5740 5739 5737 5735 5733 5731 5729 5726 5724 5721 5718 5715 5712 5709 5706 5702 5699 5696 5692 5688 5684 5680 5676 5671 5667 5663
5760 5759 5757 5756 5755 5753 5752 5750 5749 5748 5746 5745 5743 5742 5740 5738 5737 5735 5733 5731 5730 5728 5725 5723 5720 5717 5714 5711 5708 5705 5701 5698 5694 5691 5687 5683 5679 5675 5671 5666 5662 5658
5756 5755 5754 5752 5751 5750 5748 5747 5745 5744 5743 5741 5740 5738 5736 5735 5733 5731 5730 5728 5726 5724 5721 5719 5716 5713 5710 5707 5704 5700 5697 5693 5690 5686 5682 5678 5674 5670 5666 5661 5658 5654
5752 5751 5750 5749 5747 5746 5745 5743 5742 5740 5739 5738 5736 5734 5733 5731 5730 5728 5726 5724 5722 5720 5718 5715 5712 5709 5706 5703 5699 5696 5693 5689 5685 5681 5677 5674 5670 5666 5661 5657 5652 5649
5748 5747 5746 5745 5744 5742 5741 5739 5738 5737 5735 5734 5732 5731 5729 5728 5726 5724 5722 5720 5718 5716 5713 5711 5708 5705 5702 5699 5695 5692 5688 5684 5681 5677 5673 5669 5665 5662 5657 5653 5648 5644
5744 5743 5742 5741 5740 5738 5737 5736 5734 5733 5732 5730 5729 5727 5726 5724 5722 5721 5719 5716 5714 5712 5709 5706 5704 5701 5697 5694 5691 5687 5684 5680 5676 5673 5669 5665 5661 5657 5653 5649 5645 5640
5741 5740 5739 5737 5736 5735 5733 5732 5731 5729 5728 5726 5725 5724 5722 5720 5719 5717 5715 5713 5710 5708 5705 5702 5699 5696 5693 5690 5686 5683 5680 5676 5673 5669 5665 5662 5658 5654 5650 5646 5642 5637
5737 5736 5735 5733 5732 5731 5729 5728 5727 5725 5724 5723 5721 5720 5718 5717 5715 5713 5711 5709 5707 5704 5701 5698 5695 5692 5689 5686 5683 5679 5676 5673 5669 5666 5662 5658 5655 5651 5647 5643 5639 5634
5733 5732 5731 5729 5728 5727 5725 5724 5723 5722 5720 5719 5717 5716 5715 5713 5711 5709 5707 5705 5703 5700 5697 5695 5692 5689 5685 5682 5679 5676 5673 5669 5666 5663 5659 5656 5652 5648 5644 5640 5636 5631
5729 5728 5727 5725 5724 5723 5722 5720 5719 5718 5716 5715 5714 5712 5711 5709 5708 5706 5704 5702 5699 5697 5694 5691 5688 5685 5682 5679 5676 5673 5670 5667 5664 5660 5657 5653 5649 5646 5641 5637 5633 5628